Location: Vancouver
(49.2500°N, 123.1330°W)
Time: 19:22:57
(UTC-08:00)

A-11 Canister half - Visible Passes

Search period start: 26 January 2015 00:00
Search period end: 05 February 2015 00:00
Orbit: 1526 x 1684 km, 47.3° (Epoch: 25 January)

Date Brightness Start Highest point End Pass type
(mag) Time Alt. Az. Time Alt. Az. Time Alt. Az.
29 Jan 10.8 07:00:45 10° SSW 07:08:28 32° SE 07:16:26 10° E visible
30 Jan 10.8 06:39:26 10° SSW 06:47:00 30° SE 06:54:49 10° E visible
31 Jan 10.8 06:18:07 10° S 06:25:32 29° SE 06:33:12 10° E visible
01 Feb 10.7 05:56:48 10° S 06:04:05 27° SE 06:11:36 10° E visible
02 Feb 10.7 05:35:31 10° S 05:42:38 26° SE 05:49:58 10° E visible
03 Feb 10.7 05:14:15 10° S 05:21:10 25° SE 05:28:21 10° E visible
04 Feb 10.7 04:52:59 10° S 04:59:43 24° SE 05:06:42 10° E visible
04 Feb 9.6 06:54:20 10° SW 07:03:19 57° SSE 07:12:26 10° ENE visible
